• In Netherlands
  • List of Countries
  • For 7 days
  • Water Temperature
  • Satellite Maps
  • Weather Map
  • Weather Widgets
  • user-avatar
    Login

    Hourly Weather Ali Bayramli

    Today, 26 June, Monday

    Time Temperature Precipitation Wind Pressure Humidity
    00:00 +27°C° 0 mm 6 mps 759 mmHg 56%
    01:00 +26°C° 0 mm 5 mps 759 mmHg 56%
    02:00 +26°C° 0 mm 5 mps 759 mmHg 57%
    03:00 +26°C° 0 mm 5 mps 759 mmHg 56%
    04:00 +26°C° 0 mm 5 mps 760 mmHg 56%
    05:00 +27°C° 0 mm 6 mps 760 mmHg 55%
    06:00 +27°C° 0 mm 6 mps 760 mmHg 55%
    07:00 +28°C° 0 mm 6 mps 761 mmHg 52%
    08:00 +29°C° 0 mm 6 mps 761 mmHg 48%
    09:00 +32°C° 0 mm 6 mps 761 mmHg 44%
    10:00 +32°C° 0 mm 6 mps 761 mmHg 42%
    11:00 +33°C° 0 mm 6 mps 761 mmHg 41%
    12:00 +34°C° 0 mm 6 mps 761 mmHg 39%
    13:00 +33°C° 0 mm 6 mps 760 mmHg 40%
    14:00 +33°C° 0 mm 6 mps 760 mmHg 40%
    15:00 +33°C° 0 mm 6 mps 760 mmHg 41%
    16:00 +32°C° 0 mm 6 mps 760 mmHg 44%
    17:00 +30°C° 0 mm 6 mps 760 mmHg 47%
    18:00 +29°C° 0 mm 6 mps 760 mmHg 50%
    19:00 +28°C° 0 mm 5 mps 760 mmHg 55%
    20:00 +27°C° 0 mm 4 mps 760 mmHg 60%
    21:00 +26°C° 0 mm 3 mps 761 mmHg 64%
    22:00 +26°C° 0 mm 3 mps 760 mmHg 67%
    23:00 +25°C° 0 mm 2 mps 760 mmHg 69%

    Tomorrow, 27 June, Tuesday

    Time Temperature Precipitation Wind Pressure Humidity
    00:00 +25°C° 0 mm 2 mps 760 mmHg 72%
    01:00 +24°C° 0 mm 1 mps 760 mmHg 73%
    02:00 +24°C° 0 mm 1 mps 760 mmHg 75%
    03:00 +24°C° 0 mm 1 mps 760 mmHg 76%
    04:00 +24°C° 0 mm 1 mps 760 mmHg 73%
    05:00 +25°C° 0 mm 1 mps 760 mmHg 70%
    06:00 +25°C° 0 mm 1 mps 760 mmHg 67%
    07:00 +27°C° 0 mm 2 mps 759 mmHg 61%
    08:00 +28°C° 0 mm 2 mps 759 mmHg 56%
    09:00 +29°C° 0 mm 2 mps 759 mmHg 50%
    10:00 +31°C° 0 mm 3 mps 759 mmHg 46%
    11:00 +33°C° 0 mm 3 mps 758 mmHg 42%
    12:00 +34°C° 0 mm 4 mps 758 mmHg 38%
    13:00 +35°C° 0 mm 4 mps 757 mmHg 37%
    14:00 +35°C° 0 mm 5 mps 757 mmHg 36%
    15:00 +35°C° 0 mm 6 mps 756 mmHg 34%
    16:00 +34°C° 0 mm 6 mps 756 mmHg 37%
    17:00 +33°C° 0 mm 6 mps 756 mmHg 40%
    18:00 +32°C° 0 mm 6 mps 756 mmHg 43%
    19:00 +30°C° 0 mm 5 mps 756 mmHg 49%
    20:00 +28°C° 0 mm 4 mps 756 mmHg 56%
    21:00 +27°C° 0 mm 3 mps 756 mmHg 62%
    22:00 +27°C° 0 mm 2 mps 756 mmHg 64%
    23:00 +26°C° 0 mm 2 mps 756 mmHg 66%

    Day after tomorrow, 28 June, Wednesday

    Time Temperature Precipitation Wind Pressure Humidity
    00:00 +26°C° 0 mm 1 mps 756 mmHg 69%
    01:00 +25°C° 0 mm 1 mps 756 mmHg 70%
    02:00 +25°C° 0 mm 1 mps 756 mmHg 71%
    03:00 +25°C° 0 mm 1 mps 755 mmHg 71%
    04:00 +25°C° 0 mm 1 mps 755 mmHg 70%
    05:00 +26°C° 0 mm 1 mps 755 mmHg 68%
    06:00 +27°C° 0 mm 1 mps 755 mmHg 66%
    07:00 +28°C° 0 mm 1 mps 755 mmHg 60%
    08:00 +30°C° 0 mm 1 mps 755 mmHg 55%
    09:00 +31°C° 0 mm 1 mps 755 mmHg 49%
    10:00 +33°C° 0 mm 1 mps 755 mmHg 43%
    11:00 +35°C° 0 mm 2 mps 755 mmHg 38%
    12:00 +37°C° 0 mm 3 mps 755 mmHg 33%
    13:00 +37°C° 0 mm 4 mps 754 mmHg 31%
    14:00 +38°C° 0 mm 4 mps 754 mmHg 30%
    15:00 +39°C° 0 mm 5 mps 753 mmHg 28%
    16:00 +37°C° 0 mm 5 mps 753 mmHg 29%
    17:00 +36°C° 0 mm 5 mps 753 mmHg 31%
    18:00 +35°C° 0 mm 5 mps 753 mmHg 33%
    19:00 +34°C° 0 mm 5 mps 754 mmHg 36%
    20:00 +32°C° 0 mm 4 mps 754 mmHg 40%
    21:00 +30°C° 0 mm 3 mps 754 mmHg 43%
    22:00 +30°C° 0 mm 3 mps 754 mmHg 43%
    23:00 +29°C° 0 mm 3 mps 754 mmHg 43%

    29 June, Thursday

    Time Temperature Precipitation Wind Pressure Humidity
    00:00 +29°C° 0 mm 3 mps 754 mmHg 44%
    01:00 +28°C° 0 mm 3 mps 754 mmHg 44%
    02:00 +28°C° 0 mm 3 mps 754 mmHg 44%
    03:00 +27°C° 0 mm 3 mps 754 mmHg 45%
    04:00 +28°C° 0 mm 2 mps 754 mmHg 44%
    05:00 +29°C° 0 mm 2 mps 754 mmHg 43%
    06:00 +29°C° 0 mm 2 mps 754 mmHg 42%
    07:00 +31°C° 0 mm 3 mps 755 mmHg 37%
    08:00 +34°C° 0 mm 3 mps 755 mmHg 32%
    09:00 +35°C° 0 mm 3 mps 755 mmHg 27%
    10:00 +37°C° 0 mm 3 mps 755 mmHg 24%
    11:00 +38°C° 0 mm 4 mps 755 mmHg 21%
    12:00 +40°C° 0 mm 4 mps 754 mmHg 18%
    13:00 +41°C° 0 mm 5 mps 754 mmHg 18%
    14:00 +41°C° 0 mm 6 mps 754 mmHg 17%
    15:00 +41°C° 0 mm 6 mps 753 mmHg 17%
    16:00 +40°C° 0 mm 6 mps 753 mmHg 18%
    17:00 +39°C° 0 mm 6 mps 753 mmHg 19%
    18:00 +38°C° 0 mm 6 mps 753 mmHg 20%
    19:00 +35°C° 0 mm 5 mps 754 mmHg 22%
    20:00 +33°C° 0 mm 5 mps 754 mmHg 25%
    21:00 +32°C° 0 mm 4 mps 754 mmHg 28%
    22:00 +30°C° 0 mm 4 mps 754 mmHg 30%
    23:00 +29°C° 0 mm 4 mps 754 mmHg 32%

    30 June, Friday

    Time Temperature Precipitation Wind Pressure Humidity
    00:00 +29°C° 0 mm 3 mps 754 mmHg 35%
    01:00 +28°C° 0 mm 3 mps 754 mmHg 37%
    02:00 +28°C° 0 mm 3 mps 754 mmHg 38%
    03:00 +27°C° 0 mm 3 mps 754 mmHg 40%
    04:00 +28°C° 0 mm 3 mps 754 mmHg 39%
    05:00 +28°C° 0 mm 3 mps 754 mmHg 38%
    06:00 +29°C° 0 mm 4 mps 754 mmHg 37%
    07:00 +32°C° 0 mm 4 mps 754 mmHg 32%
    08:00 +34°C° 0 mm 5 mps 755 mmHg 27%
    09:00 +36°C° 0 mm 5 mps 755 mmHg 23%
    10:00 +38°C° 0 mm 6 mps 755 mmHg 21%
    11:00 +40°C° 0 mm 7 mps 755 mmHg 20%
    12:00 +41°C° 0 mm 7 mps 754 mmHg 19%
    13:00 +40°C° 0 mm 8 mps 754 mmHg 20%
    14:00 +40°C° 0 mm 9 mps 754 mmHg 21%
    15:00 +40°C° 0 mm 10 mps 754 mmHg 22%
    16:00 +39°C° 0 mm 10 mps 754 mmHg 24%
    17:00 +38°C° 0 mm 10 mps 754 mmHg 26%
    18:00 +37°C° 0 mm 9 mps 755 mmHg 28%
    19:00 +34°C° 0 mm 9 mps 755 mmHg 31%
    20:00 +33°C° 0 mm 8 mps 755 mmHg 34%
    21:00 +32°C° 0 mm 7 mps 756 mmHg 36%
    22:00 +30°C° 0 mm 7 mps 756 mmHg 38%
    23:00 +30°C° 0 mm 7 mps 756 mmHg 39%

    1 July, Saturday

    Time Temperature Precipitation Wind Pressure Humidity
    00:00 +29°C° 0 mm 6 mps 756 mmHg 41%
    01:00 +29°C° 0 mm 6 mps 756 mmHg 43%
    02:00 +28°C° 0 mm 5 mps 756 mmHg 45%
    03:00 +27°C° 0 mm 4 mps 756 mmHg 47%
    04:00 +28°C° 0 mm 4 mps 756 mmHg 45%
    05:00 +28°C° 0 mm 4 mps 756 mmHg 44%
    06:00 +29°C° 0 mm 4 mps 757 mmHg 42%
    07:00 +32°C° 0 mm 5 mps 757 mmHg 37%
    08:00 +34°C° 0 mm 5 mps 757 mmHg 31%
    09:00 +38°C° 0 mm 6 mps 757 mmHg 25%
    10:00 +39°C° 0 mm 6 mps 757 mmHg 24%
    11:00 +40°C° 0 mm 7 mps 757 mmHg 22%
    12:00 +41°C° 0 mm 8 mps 757 mmHg 20%
    13:00 +41°C° 0 mm 8 mps 757 mmHg 21%
    14:00 +42°C° 0 mm 9 mps 756 mmHg 21%
    15:00 +42°C° 0 mm 9 mps 756 mmHg 21%
    16:00 +39°C° 0 mm 9 mps 756 mmHg 23%
    17:00 +38°C° 0 mm 8 mps 756 mmHg 24%
    18:00 +37°C° 0 mm 8 mps 757 mmHg 26%
    19:00 +35°C° 0 mm 7 mps 757 mmHg 30%
    20:00 +33°C° 0 mm 6 mps 757 mmHg 33%
    21:00 +32°C° 0 mm 5 mps 757 mmHg 36%
    22:00 +30°C° 0 mm 5 mps 757 mmHg 39%
    23:00 +29°C° 0 mm 4 mps 757 mmHg 42%
    Show more